Miscellaneous Local Product
Issued by NWS North Platte, NE

Home | Current Version | Previous Version | Graphics & Text | Print | Product List | Glossary On
Versions: 1 2 3 4 5 6 7 8 9 10 11 12 13 14 15 16 17 18 19 20 21 22 23 24 25 26 27 28 29 30 31 32 33 34 35 36 37 38 39 40 41 42 43 44 45 46 47 48 49 50
000
AXUS43 KLBF 191610
MISLBF


WESTERN AND NORTH CENTRAL NEBRASKA HOURLY WEATHER ROUNDUP
NATIONAL WEATHER SERVICE NORTH PLATTE NE
1100 AM CDT SAT AUG 19 2017

NOTE: "FAIR" INDICATES FEW OR NO CLOUDS BELOW 12,000 FEET WITH NO
SIGNIFICANT WEATHER AND/OR OBSTRUCTIONS TO VISIBILITY.

NOTE: STATIONS NOT REPORTING VARIABLES SUCH AS SKY/WEATHER OR
PRESSURE ARE PROVIDED BY RAWS AND APRS NETWORKS AND ARE NOT UNDER
NATIONAL WEATHER SERVICE QUALITY CONTROL.

...OBSERVATIONS IN AND NEAR THE EASTERN PANHANDLE OF NEBRASKA...

CITY           SKY/WX    TMP DP  RH WIND       PRES   REMARKS
PINE RIDGE     SUNNY     80  54  40 W12       29.91S
GORDON         FAIR      79  55  43 SW10      29.92S
CHADRON        SUNNY     77  49  37 SW6       29.91S
ALLIANCE       SUNNY     81  50  33 W13       29.95F
SIDNEY         SUNNY     84  53  34 W12       30.02S
$$

...OBSERVATIONS IN NORTHERN NEBRASKA AND FAR SOUTHERN SOUTH DAKOTA...

CITY           SKY/WX    TMP DP  RH WIND       PRES   REMARKS
WINNER         FAIR      81  62  52 S15       29.88F
VALENTINE      SUNNY     81  53  37 S13       29.90F
THEDFORD       SUNNY     80  57  45 S15       29.96F
AINSWORTH      SUNNY     76  60  57 S17       29.94S
O`NEILL        SUNNY     75  61  60 S8        29.96F
ORD            SUNNY     76  60  57 SE14      29.95F
BROKEN BOW     SUNNY     79  62  56 SE12      29.96F
VALENTINE NWR    N/A     73  59  60 S12         N/A
HALSEY           N/A     76  55  48 S7          N/A
BUTTE            N/A     72  62  69 SE12        N/A
CHAMBERS         N/A     78  62  57 S3          N/A
EWING            N/A     74  62  66 S5G12       N/A
$$

...OBSERVATIONS IN SOUTHWEST NEBRASKA AND FAR NORTHEAST COLORADO...

CITY           SKY/WX    TMP DP  RH WIND       PRES   REMARKS
HOLYOKE        FAIR      79  64  61 SW8       30.01F
IMPERIAL       SUNNY     80  62  54 S8        29.99F
OGALLALA       SUNNY     78  63  59 S10       29.98S
NORTH PLATTE   SUNNY     78  64  61 S7        29.97F
MCCOOK         SUNNY     83  67  58 S12       29.97F
LEXINGTON      SUNNY     78  67  68 S9        29.98S
STAPLETON        N/A     77  61  57 SW3G15      N/A
GOTHENBURG       N/A     73  59  60 SE3         N/A
CALLAWAY         N/A     73  65  76 S10         N/A
$$

...OBSERVATIONS IN CENTRAL LINCOLN COUNTY AREA...

CITY           SKY/WX    TMP DP  RH WIND       PRES   REMARKS
N.P. AIRPORT   SUNNY     78  64  61 S7        29.97F
N.P. DOWNTOWN    N/A     81  65  57 S3          N/A
N.P. SOUTHEAST   N/A     79  63  58 S3          N/A
N.P. HILLCREST   N/A     78  63  60 S7          N/A
$$

...SOME OBSERVATIONS FROM AROUND THE REGION...

CITY           SKY/WX    TMP DP  RH WIND       PRES   REMARKS
DENVER         MOSUNNY   82  40  22 SW6       30.12S
LIMON          SUNNY     75  60  59 S5        30.13F
ASPEN          SUNNY     69  35  28 N6        30.34S
LARAMIE        SUNNY     74  30  19 SW10      30.24S
CASPER         SUNNY     77  32  19 SW16      30.08S
CHEYENNE       SUNNY     81  33  17 W12       30.16R
SCOTTSBLUFF    SUNNY     80  47  31 NW8       29.98S
GRAND ISLAND   SUNNY     75  66  73 SE10      29.99F
OMAHA          SUNNY     75  62  64 N5        29.98S
SIOUX FALLS    MOSUNNY   69  63  81 E5        29.96F
PIERRE         SUNNY     79  58  48 S15       29.83S
RAPID CITY     SUNNY     80  55  42 CALM      29.87F
BISMARCK       SUNNY     76  62  62 S9        29.80F
KANSAS CITY    SUNNY     82  69  64 CALM      29.99R
HILL CITY      SUNNY     86  67  52 S9        29.99F
WICHITA        MOSUNNY   89  73  59 VRB7      29.97R HX  97
DODGE CITY     SUNNY     90  67  46 S8        30.03S HX  93
OKLAHOMA CITY  MOSUNNY   86  72  62 SW9       30.01R HX  92
DALLAS         MOSUNNY   91  72  53 SW10      30.00R HX  98
AMARILLO       SUNNY     84  65  52 SW12      30.13S
$$




USA.gov is the U.S. government's official web portal to all federal, state and local government web resources and services.